Weather in Whakatane

New Zealand     37°57′06″S   176°59′43″E
temp.,
°C
wind,
m/s
gust,
m/s
humid.,
%
clouds,
%
prec.,
mm/h
press.,
hPa
HPBL,
m
18 january, mon
mon1801:00+16w369036 0.5 1004273
04:00+15wnw38910 0.0 1004364
07:00+15w410881 0.0 1004599
10:00+19w410520 0.0 10061691
13:00+23wnw58418 0.0 10062024
16:00+23wnw48403 0.0 10061838
19:00+22wnw574432 0.0 10061829
22:00+17w410570 0.0 1009627
19 january, tue
tue1901:00+13wsw24780 0.0 1009266
04:00+12w24900 0.0 1009178
07:00+14w37890 0.0 1008300
10:00+20nw58650 0.0 10081234
13:00+21nw596535 0.3 10061179
16:00+22nnw6106322 0.1 10041364
19:00+23nnw6106022 0.3 10031431
22:00+18wnw3117742 0.3 1003967
20 january, wed
wed2001:00+19nw6137965 0.5 10021230
04:00+17wnw51192100 1.8 1001748
07:00+15w398664 1.9 1001656
10:00+17wnw5106754 0.2 10021605
13:00+19wnw6114968 0.4 10022089
16:00+19wnw6114396 0.0 10012534
19:00+19wnw6104285 0.0 10012386
22:00+14w49602 0.0 1004870
21 january, thu
thu2101:00+12w497248 0.0 1004577
04:00+10wsw35850 0.0 1004278
07:00+9sw12907 0.0 1004118
10:00+17wnw25545 0.0 10051286
13:00+19nw464944 0.1 10041688
16:00+21wnw474195 0.1 10042412
19:00+19wsw574583 0.1 10051513
22:00+15wsw49601 0.0 1008497
22 january, fri
fri2201:00+11ssw36731 0.0 1009219
04:00+9ssw25820 0.0 1010164
07:00+9sw35850 0.0 1011179
10:00+18sw24480 0.0 1012854
13:00+22nnw34400 0.0 10121489
16:00+22n45520 0.0 1011962
19:00+21n576010 0.1 1012733
22:00+17sw347339 0.1 1014339